Location: Albert Place
(40.7505°N, 111.9230°W)
Time: 22:29:37
(UTC+00:00)

Cosmos-2242 - Pass Details

Date: 13 December 2025
Orbit: 566 x 591 km, 82.5° (Epoch: 14 January)

Event Time Altitude Azimuth Distance (km) Brightness Sun altitude
Exits shadow 12:43:56 34° 356° (N) 971 3.9 -21.8°
Maximum altitude 12:45:43 84° 83° (E) 588 2.9 -21.5°
Drops below altitude 10° 12:49:52 10° 171° (S) 1,878 5.8 -20.8°
Sets 12:52:02 0° 172° (S) 2,768 6.7 -20.4°
